Weather in Verkhnenildina

Russia / Khanty-Mansi Autonomous Okrug — Yugra     63°17′10″N   61°29′46″E
temp.,
°C
wind,
m/s
gust,
m/s
humid.,
%
clouds,
%
prec.,
mm/h
press.,
hPa
HPBL,
m
23 october, sat
sat2323:00+1se41193100 0.5 985394
02:00+1sse31098100 4.0 982425
05:00+2s2799100 4.9 982205
08:00+5wsw5138186 0.0 984733
11:00+4wsw4117869 0.0 986977
14:00+5wsw5127424 0.0 9871191
17:00+4wsw5117682 0.0 988937
20:00+3sw61391100 0.2 9881229
24 october, sun
sun2423:00+1w7147190 0.5 991882
02:00−1wnw512735 0.0 996799
05:00−1w512755 0.0 1000577
08:00−2w411775 0.0 1002482
11:000w410670 0.0 1004611
14:00+2w36625 0.0 1005715
17:00−1w227855 0.0 100625
20:00−3wnw128438 0.0 100628
25 october, mon
mon2523:00−3wnw1182100 0.0 100642
02:00−2nw1380100 0.0 100598
05:00−3wnw1378100 0.0 100694
08:00−3wsw1378100 0.0 100698
11:00−1wsw2470100 0.0 1006396
14:000w2566100 0.0 1007547
17:00−1wsw2275100 0.0 100753
20:00−2w2783100 0.0 1007294
26 october, tue
tue2623:00−2w3773100 0.0 1007369
02:00−3w258252 0.0 1007165
05:00−4wnw258631 0.0 1008163
08:00−3wnw387292 0.0 1009444
11:00−2wnw410612 0.0 1010728
14:00−1wnw4105535 0.0 10111077
17:00−3wnw512655 0.0 1011750
20:00−3w512695 0.0 1013743
27 october, wed
wed2723:00−4w512691 0.0 1013629
02:00−4w411731 0.0 1015430
05:00−5wsw26795 0.0 1015186
08:00−6ssw22815 0.0 101528
11:00−4sse3868100 0.0 1014350
14:00−2sse4960100 0.0 1012577
17:00−3sse41094100 0.8 1010543
20:00−2sse31095100 1.4 1007504